This demonstration page uses our WeatherBlox Daily Observations layout. Learn more.

Left ArrowRight Arrow

41.12389, -100.76542

Hourly Observations for March 26, 2019

Temp ( °F °C ) Dew Point ( °F °C ) Humidity (%) Winds ( mph kmh ) Pressure ( in mb ) Visibility ( mi km ) Precip ( " mm )
12:53 am 00:53 Clear 39 3.9 37 2.8 93 93 SSW 3 6 30.29 1026 10 16 0.00 0.00
1:23 am 01:23 Mostly Clear with Mist and Fog 35 1.7 35 1.7 100 100 Calm 30.36 1028 3 4 0.00 0.00
1:25 am 01:25 Mostly Clear with Mist and Fog 34 1.1 34 1.1 100 100 Calm 30.36 1028 1 2 0.00 0.00
1:29 am 01:29 Mostly Cloudy with Mist and Fog 34 1.1 34 1.1 100 100 NW 3 6 30.36 1028 1 1 0.00 0.00
1:41 am 01:41 Mostly Clear with Mist and Fog 34 1.1 33 0.6 97 97 N 6 9 30.35 1028 1 2 0.00 0.00
1:43 am 01:43 Mostly Clear with Mist and Fog 35 1.7 34 1.1 96 96 N 5 7 30.35 1028 2 3 0.00 0.00
1:51 am 01:51 Clear with Mist and Fog 34 1 34 1 100 100 NNW 3 6 30.35 1028 3 5 0.00 0.00
1:53 am 01:53 Clear with Mist and Fog 34 1.1 33 0.6 97 97 NW 3 6 30.28 1026 2 3 0.00 0.00
1:55 am 01:55 Mostly Cloudy with Mist and Fog 34 1.1 33 0.6 97 97 NW 3 6 30.35 1028 1 2 0.00 0.00
1:57 am 01:57 Mostly Cloudy with Mist and Fog 33 0.6 33 0.6 100 100 Calm 30.36 1028 1 1 0.00 0.00
2:06 am 02:06 Mostly Cloudy with Fog 33 0.6 32 0 96 96 Calm 30.36 1028 0 0 0.00 0.00
2:28 am 02:28 Mostly Cloudy with Fog 33 0.6 32 0 96 96 Calm 30.36 1028 0 0 0.00 0.00
2:46 am 02:46 Mostly Cloudy with Fog 33 0.6 32 0 96 96 Calm 30.36 1028 1 1 0.00 0.00
2:53 am 02:53 Mostly Cloudy with Fog 33 0.6 32 0 96 96 Calm 30.28 1025 0 0 0.00 0.00
3:12 am 03:12 Mostly Cloudy with Fog 32 0 30 -1.1 92 92 Calm 30.36 1028 0 0 0.00 0.00
3:31 am 03:31 Mostly Cloudy with Freezing Fog 30 -1.1 30 -1.1 100 100 Calm 30.38 1029 1 1 0.00 0.00
3:53 am 03:53 Mostly Cloudy with Mist and Fog 29 -1.7 28 -2.2 96 96 NNW 3 6 30.28 1025 1 1 0.00 0.00
4:05 am 04:05 Mostly Cloudy with Freezing Fog 28 -2.2 27 -2.8 96 96 N 6 9 30.38 1029 0 0 0.00 0.00
4:13 am 04:13 Mostly Cloudy with Freezing Fog 30 -1.1 29 -1.7 96 96 N 6 9 30.37 1028 1 1 0.00 0.00
4:23 am 04:23 Mostly Cloudy with Fog 32 0 31 -0.6 96 96 NNW 6 9 30.35 1028 0 0 0.00 0.00
4:53 am 04:53 Mostly Cloudy with Freezing Fog 31 -0.6 31 -0.6 100 100 NW 5 7 30.28 1025 0 0 0.00 0.00
5:01 am 05:01 Mostly Cloudy with Freezing Fog 31 -0.6 31 -0.6 100 100 NW 5 7 30.35 1028 0 0 0.00 0.00
5:08 am 05:08 Mostly Cloudy with Fog 32 0 31 -0.6 96 96 NW 7 11 30.34 1028 1 1 0.00 0.00
5:19 am 05:19 Mostly Cloudy with Fog 32 0 31 -0.6 96 96 NNW 6 9 30.34 1028 0 0 0.00 0.00
5:53 am 05:53 Mostly Cloudy with Fog 32 0 31 -0.6 96 96 NW 5 7 30.27 1025 0 0 0.00 0.00
6:16 am 06:16 Mostly Cloudy with Freezing Fog 31 -0.6 31 -0.6 100 100 NNW 5 7 30.36 1028 1 1 0.00 0.00
6:31 am 06:31 Mostly Cloudy with Freezing Fog 31 -0.6 31 -0.6 100 100 NNW 3 6 30.35 1028 0 0 0.00 0.00
6:53 am 06:53 Mostly Cloudy with Freezing Fog 30 -1.1 30 -1.1 100 100 NNW 3 6 30.29 1026 0 0 0.00 0.00
7:53 am 07:53 Mostly Cloudy with Freezing Fog 30 -1.1 29 -1.7 96 96 Calm 30.28 1026 5 8 0.00 0.00
8:03 am 08:03 Mostly Cloudy with Freezing Fog 30 -1.1 29 -1.7 96 96 Calm 30.36 1028 5 8 0.00 0.00
8:53 am 08:53 Mostly Cloudy with Freezing Fog 31 -0.6 30 -1.1 96 96 Calm 30.29 1026 5 8 0.00 0.00
9:53 am 09:53 Mostly Cloudy with Fog 33 0.6 33 0.6 100 100 Calm 30.28 1025 0 0 0.00 0.00
10:05 am 10:05 Mostly Cloudy with Fog 33 0.6 33 0.6 100 100 undefined N/A 30.33 1027 1 1 0.00 0.00
10:13 am 10:13 Mostly Cloudy with Fog 34 1.1 34 1.1 100 100 Calm 30.31 1026 0 0 0.00 0.00
10:30 am 10:30 Cloudy with Mist and Fog 37 2.8 37 2.8 100 100 Calm 30.30 1026 1 1 0.00 0.00
10:34 am 10:34 Mostly Cloudy with Mist and Fog 37 2.8 37 2.8 100 100 Calm 30.29 1026 2 2 0.00 0.00
10:38 am 10:38 Mostly Cloudy with Mist and Fog 38 3.3 37 2.8 97 97 Calm 30.29 1026 3 5 0.00 0.00
10:53 am 10:53 Mostly Cloudy 40 4.4 39 3.9 97 97 Calm 30.26 1025 7 11 0.00 0.00
11:00 am 11:00 Mostly Sunny 41 5 39 3.9 93 93 Calm 30.27 1025 9 14 0.00 0.00
11:53 am 11:53 Sunny 52 11.1 45 7.2 77 77 SSE 6 9 30.23 1024 10 16 0.00 0.00
12:53 pm 12:53 Sunny 63 17.2 44 6.7 50 50 SSW 13 20 30.17 1022 10 16 0.00 0.00
1:53 pm 13:53 Sunny 66 18.9 42 5.6 42 42 SSW 20 31 30.15 1021 10 16 0.00 0.00
2:53 pm 14:53 Sunny 68 20 42 5.6 39 39 SSW 18 30 30.10 1019 10 16 0.00 0.00
3:53 pm 15:53 Sunny 67 19.4 40 4.4 37 37 SSW 16 26 30.09 1019 10 16 0.00 0.00
4:53 pm 16:53 Mostly Sunny 68 20 42 5.6 39 39 SW 20 31 30.06 1018 10 16 0.00 0.00
5:53 pm 17:53 Sunny 67 19.4 44 6.7 44 44 SSW 18 30 30.04 1017 10 16 0.00 0.00
6:53 pm 18:53 Sunny 64 17.8 44 6.7 48 48 SSW 12 19 30.04 1017 10 16 0.00 0.00
7:53 pm 19:53 Sunny 60 15.6 44 6.7 56 56 S 8 13 30.04 1017 10 16 0.00 0.00
8:53 pm 20:53 Clear 57 13.9 45 7.2 64 64 S 7 11 30.04 1017 10 16 0.00 0.00
9:53 pm 21:53 Clear 57 13.9 45 7.2 64 64 S 12 19 30.03 1017 10 16 0.00 0.00
10:53 pm 22:53 Clear 54 12.2 44 6.7 69 69 SSW 12 19 30.04 1017 10 16 0.00 0.00
11:53 pm 23:53 Clear 53 11.7 45 7.2 74 74 S 8 13 30.00 1016 10 16 0.00 0.00

Powered by AerisWeather